Location: Borea
(45.6167°N, 23.0167°E)
Time: 16:11:26
(UTC+00:00)

FENGYUN 1C DEB - Pass Details

Date: 23 February 2024
Orbit: 561 x 661 km, 99.3° (Epoch: 16 April)

Event Time Altitude Azimuth Distance (km) Brightness Sun altitude
Rises 02:56:38 0° 14° (NNE) 3,117 ? -25.4°
Reaches altitude 10° 02:58:56 10° 14° (NNE) 2,182 ? -25.0°
Maximum altitude 03:03:44 85° 287° (WNW) 698 ? -24.2°
Enters shadow 03:04:13 71° 213° (SSW) 728 ? -24.1°
